Location: Windsor
(43.2292°N, 89.3015°W)
Time: 23:17:35
(UTC+00:00)

MOZHAYETS 4 - Pass Details

Date: 30 June 2022
Orbit: 660 x 678 km, 98.2° (Epoch: 16 August)

Event Time Altitude Azimuth Distance (km) Brightness Sun altitude
Exits shadow 06:59:51 - 117° (ESE) 2,686 10.7 -22.2°
Reaches altitude 10° 07:01:45 10° 102° (ESE) 2,112 10.3 -22.1°
Maximum altitude 07:04:42 17° 62° (ENE) 1,687 10.3 -22.0°
Drops below altitude 10° 07:07:39 10° 23° (NNE) 2,115 11.4 -21.9°
Sets 07:10:33 0° 3° (N) 3,030 12.5 -21.7°
